Hamilton Island Airport, Australia

5:00 AM AEST on September 26, 2016 (GMT +1000)
Hamilton Island

Weather History for YBHM - October, 2012

Change the Weather History Date:

Saturday, October 6, 2012

  Actual Average Record
Temperature  
Mean Temperature 74 °F -  
Max Temperature 78 °F - - ()
Min Temperature 69 °F - - ()
Cooling Degree Days 8    
Growing Degree Days 24 (Base 50)    
Moisture  
Dew Point 58 °F    
Average Humidity 57    
Maximum Humidity 73    
Minimum Humidity 40    
Precipitation  
Precipitation 0.00 in - - ()
Sea Level Pressure  
Sea Level Pressure 30.06 in    
Wind  
Wind Speed 15 mph ()    
Max Wind Speed 21 mph    
Max Gust Speed -    
T = Trace of Precipitation, MM = Missing Value Source: Averaged Metar Reports

Daily Weather History Graph

Daily Weather History Graph

Search for Another Location

Airport or City:

Trip Planner

Search our weather history database for the weather conditions in past years. The results will help you decide how hot, cold, wet, or windy it might be!

Date:

Astronomy

Oct. 06, 2012 Rise Set
Actual Time 5:41 AM AEST 6:03 PM AEST
Civil Twilight 5:19 AM AEST 6:25 PM AEST
Nautical Twilight 4:53 AM AEST 6:51 PM AEST
Astronomical Twilight 4:27 AM AEST 7:18 PM AEST
Moon 11:10 PM AEST (10/6) 9:37 AM AEST (10/6)
Length of Visible Light 13h 06m
Length of Day
12h 22m
Waning Gibbous, 71% of the Moon is Illuminated
Oct 6
Waning Gibbous
Oct 8
Last Quarter
Oct 15
New
Oct 22
First Quarter
Oct 30
Full

Hourly Weather History & Observations

Time (AEST) Temp. Dew Point Humidity Pressure Visibility Wind Dir Wind Speed Gust Speed Precip Events Conditions
12:00 AM 71 °F 61 °F 63% 30.11 in - SE 16.1 mph - -  
12:00 AM 71.6 °F 60.8 °F 69% 30.09 in - SE 16.1 mph - N/A   Unknown
12:30 AM 71.6 °F 59.0 °F 64% 30.09 in - ESE 13.8 mph - N/A   Unknown
1:00 AM 71.6 °F 60.8 °F 69% 30.09 in - SE 13.8 mph - N/A   Unknown
2:00 AM 69.8 °F 60.8 °F 73% 30.06 in - SE 13.8 mph - N/A   Unknown
2:30 AM 71.6 °F 60.8 °F 69% 30.06 in - ESE 16.1 mph - N/A   Unknown
3:00 AM 71 °F 61 °F 62% 30.07 in - ESE 16.1 mph - -  
3:00 AM 71.6 °F 60.8 °F 69% 30.06 in - ESE 16.1 mph - N/A   Unknown
3:30 AM 71.6 °F 59.0 °F 64% 30.06 in - ESE 16.1 mph - N/A   Unknown
4:00 AM 71.6 °F 59.0 °F 64% 30.06 in - ESE 17.3 mph - N/A   Unknown
4:30 AM 71.6 °F 59.0 °F 64% 30.06 in - ESE 17.3 mph - N/A   Unknown
5:00 AM 71.6 °F 59.0 °F 64% 30.06 in - SE 17.3 mph - N/A   Unknown
5:30 AM 71.6 °F 59.0 °F 64% 30.06 in - SE 17.3 mph - N/A   Unknown
6:00 AM 71 °F 59 °F 56% 30.09 in - SE 17.3 mph - -  
6:00 AM 71.6 °F 59.0 °F 64% 30.06 in - SE 17.3 mph - N/A   Unknown
6:30 AM 71.6 °F 59.0 °F 64% 30.09 in - SE 17.3 mph - N/A   Unknown
7:00 AM 73.4 °F 57.2 °F 57% 30.09 in - ESE 20.7 mph - N/A   Unknown
7:30 AM 75.2 °F 59.0 °F 57% 30.09 in - ESE 17.3 mph - N/A   Unknown
8:00 AM 75.2 °F 59.0 °F 57% 30.12 in - ESE 17.3 mph - N/A   Unknown
8:30 AM 77.0 °F 60.8 °F 57% 30.12 in - ESE 18.4 mph - N/A   Unknown
9:00 AM 76 °F 60 °F 47% 30.13 in - ESE 18.4 mph - -  
9:00 AM 77.0 °F 59.0 °F 54% 30.12 in - ESE 18.4 mph - N/A   Unknown
9:30 AM 77.0 °F 59.0 °F 54% 30.12 in - ESE 17.3 mph - N/A   Unknown
10:00 AM 77.0 °F 57.2 °F 50% 30.12 in - ESE 17.3 mph - N/A   Unknown
10:30 AM 77.0 °F 59.0 °F 54% 30.09 in - ESE 15.0 mph - N/A   Unknown
11:00 AM 78.8 °F 57.2 °F 47% 30.09 in - East 17.3 mph - N/A   Unknown
11:30 AM 77.0 °F 55.4 °F 47% 30.06 in - East 17.3 mph - N/A   Unknown
12:00 PM 77 °F 57 °F 40% 30.07 in - East 17.3 mph - -  
12:00 PM 77.0 °F 57.2 °F 50% 30.06 in - East 17.3 mph - N/A   Unknown
12:30 PM 77.0 °F 57.2 °F 50% 30.06 in - East 16.1 mph - N/A   Unknown
1:00 PM 77.0 °F 55.4 °F 47% 30.04 in - East 16.1 mph - N/A   Unknown
1:30 PM 77.0 °F 55.4 °F 47% 30.04 in - East 16.1 mph - N/A   Unknown
2:00 PM 77.0 °F 57.2 °F 50% 30.04 in - East 15.0 mph - N/A   Unknown
2:30 PM 77.0 °F 57.2 °F 50% 30.01 in - East 13.8 mph - N/A   Unknown
3:00 PM 75 °F 57 °F 44% 30.00 in - East 15.0 mph - -  
3:00 PM 75.2 °F 57.2 °F 53% 30.01 in - East 15.0 mph - N/A   Unknown
3:30 PM 75.2 °F 59.0 °F 57% 30.01 in - ESE 15.0 mph - N/A   Unknown
4:00 PM 75.2 °F 57.2 °F 53% 29.98 in - ESE 15.0 mph - N/A   Unknown
4:30 PM 73.4 °F 59.0 °F 61% 29.98 in - ESE 16.1 mph - N/A   Unknown
5:00 PM 73.4 °F 57.2 °F 57% 29.98 in - East 16.1 mph - N/A   Unknown
5:30 PM 73.4 °F 57.2 °F 57% 30.01 in - East 16.1 mph - N/A   Unknown
6:00 PM 73 °F 54 °F 41% 30.01 in - East 15.0 mph - -  
6:00 PM 73.4 °F 53.6 °F 50% 30.01 in - East 15.0 mph - N/A   Unknown
6:30 PM 71.6 °F 55.4 °F 57% 30.01 in - ESE 15.0 mph - N/A   Unknown
7:00 PM 71.6 °F 57.2 °F 60% 30.01 in - ESE 15.0 mph - N/A   Unknown
7:30 PM 71.6 °F 57.2 °F 60% 30.04 in - East 15.0 mph - N/A   Unknown
8:00 PM 71.6 °F 57.2 °F 60% 30.04 in - East 15.0 mph - N/A   Unknown
8:30 PM 71.6 °F 57.2 °F 60% 30.04 in - East 16.1 mph - N/A   Unknown
9:00 PM 72 °F 56 °F 46% 30.06 in - East 11.5 mph - -  
9:00 PM 71.6 °F 55.4 °F 57% 30.06 in - East 11.5 mph - N/A   Unknown
9:30 PM 71.6 °F 57.2 °F 60% 30.06 in - ENE 11.5 mph - N/A   Unknown
10:00 PM 69.8 °F 55.4 °F 60% 30.06 in - NE 8.1 mph - N/A   Unknown
10:30 PM 69.8 °F 59.0 °F 68% 30.06 in - NE 10.4 mph - N/A   Unknown
11:00 PM 69.8 °F 57.2 °F 64% 30.06 in - NE 9.2 mph - N/A   Unknown
11:30 PM 69.8 °F 57.2 °F 64% 30.04 in - NE 8.1 mph - N/A   Unknown